{"data":{"norad_id":60238,"intl_designator":"2024-128D","name":"ISTSAT-1","alt_names":[],"object_type":"PAYLOAD","status":"ACTIVE","operator":null,"country":"POR","launch_date":"2024-07-09","launch_site_code":"FRGUI","launch_vehicle":null,"mission":null,"orbit_class":"UNKNOWN","rcs_meters":null,"size_class":null,"mass_kg":null,"dimensions":null,"purposes":[],"wikipedia_slug":null,"has_3d_model":false,"image_url":null,"decayed_at":null,"tle_current":{"epoch":"2026-05-25T03:54:56.039904Z","epoch_age_seconds":60953,"freshness":"FRESH","line1":"1 60238U 24128D   26145.16314861  .00007337  00000+0  43774-3 0  9991","line2":"2 60238  61.9883 287.5234 0041513 126.6378 233.8545 15.11276337102980","mean_motion":15.11276337,"eccentricity":0.0041513,"inclination_deg":61.9883,"raan_deg":287.5234,"arg_perigee_deg":126.6378,"mean_anomaly_deg":233.8545,"bstar":0.00043774,"rev_number":10298,"period_min":95.283699264326,"perigee_km":503.619163504,"apogee_km":560.99381160377,"semimajor_km":6910.4434875539,"source":"CELESTRAK","updated_at":"2026-05-25T13:38:01.930090Z"}}}